Marshall, MN

7:26 AM CST on February 19, 2017 (GMT -0600)
Marshall Municipal-Ryan

Weather History for KMML - May, 2013

Change the Weather History Date:

Saturday, May 25, 2013

  Actual Average Record
Temperature  
Mean Temperature 54 °F -  
Max Temperature 57 °F 70 °F 90 °F (1985)
Min Temperature 51 °F 48 °F 28 °F (2002)
Degree Days  
Heating Degree Days 11    
Growing Degree Days 4 (Base 50)    
Moisture  
Dew Point 48 °F    
Average Humidity 78    
Maximum Humidity 82    
Minimum Humidity 72    
Precipitation  
Precipitation 0.00 in - - ()
Sea Level Pressure  
Sea Level Pressure 30.11 in    
Wind  
Wind Speed 15 mph (SE)    
Max Wind Speed 23 mph    
Max Gust Speed 29 mph    
Visibility 10 miles    
Events      
Averages and records for this station are not official NWS values.
T = Trace of Precipitation, MM = Missing Value Source: NWS Daily Summary

Daily Weather History Graph

Daily Weather History Graph

Search for Another Location

Airport or City:

Trip Planner

Search our weather history database for the weather conditions in past years. The results will help you decide how hot, cold, wet, or windy it might be!

Date:

Astronomy

May. 25, 2013 Rise Set
Actual Time 5:46 AM CDT 8:54 PM CDT
Civil Twilight 5:11 AM CDT 9:29 PM CDT
Nautical Twilight 4:26 AM CDT 10:15 PM CDT
Astronomical Twilight 3:31 AM CDT 11:10 PM CDT
Moon 9:43 PM CDT (5/25) 6:14 AM CDT (5/25)
Length of Visible Light 16h 18m
Length of Day
15h 08m
Full, 100% of the Moon is Illuminated
May 25
Full
May 31
Last Quarter
Jun 8
New
Jun 16
First Quarter
Jun 23
Full

Hourly Weather History & Observations

Time (CDT) Temp. Dew Point Humidity Pressure Visibility Wind Dir Wind Speed Gust Speed Precip Events Conditions
12:15 AM 57.2 °F 51.8 °F 82% 30.13 in 10.0 mi ESE 12.7 mph - N/A   Overcast
12:35 AM 57.2 °F 51.8 °F 82% 30.13 in 10.0 mi ESE 12.7 mph - N/A   Overcast
12:55 AM 57.2 °F 51.8 °F 82% 30.11 in 10.0 mi ESE 12.7 mph - N/A   Overcast
1:15 AM 57.2 °F 50.0 °F 77% 30.10 in 10.0 mi ESE 15.0 mph 19.6 mph N/A   Overcast
1:35 AM 55.4 °F 48.2 °F 77% 30.08 in 10.0 mi ESE 15.0 mph 20.7 mph N/A   Overcast
1:55 AM 55.4 °F 48.2 °F 77% 30.08 in 10.0 mi ESE 15.0 mph - N/A   Overcast
2:15 AM 55.4 °F 48.2 °F 77% 30.08 in 10.0 mi SE 15.0 mph - N/A   Overcast
2:35 AM 55.4 °F 48.2 °F 77% 30.09 in 10.0 mi SE 15.0 mph - N/A   Overcast
2:55 AM 55.4 °F 48.2 °F 77% 30.07 in 10.0 mi SE 15.0 mph 21.9 mph N/A   Overcast
3:15 AM 55.4 °F 48.2 °F 77% 30.07 in 10.0 mi SE 15.0 mph - N/A   Mostly Cloudy
3:35 AM 55.4 °F 48.2 °F 77% 30.08 in 10.0 mi SE 13.8 mph 19.6 mph N/A   Mostly Cloudy
3:55 AM 55.4 °F 48.2 °F 77% 30.08 in 10.0 mi SE 13.8 mph - N/A   Overcast
4:15 AM 55.4 °F 48.2 °F 77% 30.08 in 10.0 mi SE 13.8 mph - N/A   Overcast
4:35 AM 55.4 °F 48.2 °F 77% 30.07 in 10.0 mi SE 10.4 mph - N/A   Overcast
4:55 AM 55.4 °F 48.2 °F 77% 30.08 in 10.0 mi SE 12.7 mph - N/A   Overcast
5:15 AM 55.4 °F 48.2 °F 77% 30.06 in 10.0 mi SE 16.1 mph - N/A   Overcast
5:35 AM 55.4 °F 48.2 °F 77% 30.07 in 10.0 mi SE 13.8 mph - N/A   Scattered Clouds
5:55 AM 55.4 °F 48.2 °F 77% 30.08 in 10.0 mi SE 12.7 mph 16.1 mph N/A   Partly Cloudy
6:15 AM 53.6 °F 48.2 °F 82% 30.08 in 10.0 mi ESE 15.0 mph 18.4 mph N/A   Clear
6:35 AM 53.6 °F 48.2 °F 82% 30.07 in 10.0 mi ESE 16.1 mph - N/A   Clear
6:55 AM 55.4 °F 48.2 °F 77% 30.08 in 10.0 mi SE 15.0 mph 20.7 mph N/A   Partly Cloudy
7:15 AM 55.4 °F 48.2 °F 77% 30.09 in 10.0 mi SE 13.8 mph - N/A   Mostly Cloudy
7:35 AM 55.4 °F 48.2 °F 77% 30.09 in 10.0 mi SE 15.0 mph - N/A   Mostly Cloudy
7:55 AM 55.4 °F 48.2 °F 77% 30.10 in 10.0 mi SE 13.8 mph - N/A   Scattered Clouds
8:15 AM 57.2 °F 48.2 °F 72% 30.10 in 10.0 mi SE 17.3 mph 23.0 mph N/A   Mostly Cloudy
8:35 AM 57.2 °F 48.2 °F 72% 30.11 in 10.0 mi SE 16.1 mph 20.7 mph N/A   Overcast
8:55 AM 55.4 °F 46.4 °F 72% 30.10 in 10.0 mi SE 19.6 mph 26.5 mph N/A   Overcast
9:15 AM 55.4 °F 46.4 °F 72% 30.11 in 10.0 mi SE 23.0 mph 28.8 mph N/A   Overcast
9:35 AM 55.4 °F 46.4 °F 72% 30.11 in 10.0 mi SE 23.0 mph 27.6 mph N/A   Overcast
9:55 AM 55.4 °F 46.4 °F 72% 30.12 in 10.0 mi SE 17.3 mph 24.2 mph N/A   Overcast
10:15 AM 55.4 °F 48.2 °F 77% 30.11 in 10.0 mi SE 20.7 mph 28.8 mph N/A   Overcast
10:35 AM 55.4 °F 48.2 °F 77% 30.12 in 10.0 mi SE 19.6 mph 27.6 mph N/A   Overcast
10:55 AM 55.4 °F 48.2 °F 77% 30.12 in 10.0 mi SE 23.0 mph 26.5 mph N/A   Overcast
11:15 AM 55.4 °F 48.2 °F 77% 30.12 in 10.0 mi SSE 20.7 mph 26.5 mph N/A   Overcast
11:35 AM 55.4 °F 48.2 °F 77% 30.12 in 10.0 mi SSE 19.6 mph 26.5 mph N/A   Overcast
11:55 AM 57.2 °F 48.2 °F 72% 30.12 in 10.0 mi SSE 19.6 mph - N/A   Overcast
12:15 PM 57.2 °F 48.2 °F 72% 30.13 in 10.0 mi SSE 19.6 mph 24.2 mph N/A   Overcast
12:35 PM 55.4 °F 48.2 °F 77% 30.13 in 10.0 mi SE 18.4 mph 24.2 mph N/A   Overcast
12:55 PM 55.4 °F 48.2 °F 77% 30.12 in 10.0 mi SSE 19.6 mph 24.2 mph N/A   Overcast
1:15 PM 55.4 °F 48.2 °F 77% 30.13 in 10.0 mi SE 12.7 mph - N/A   Overcast
1:35 PM 55.4 °F 48.2 °F 77% 30.13 in 10.0 mi SE 15.0 mph - N/A   Overcast
1:55 PM 55.4 °F 48.2 °F 77% 30.13 in 10.0 mi SE 15.0 mph 19.6 mph N/A   Overcast
2:15 PM 55.4 °F 48.2 °F 77% 30.13 in 10.0 mi SE 13.8 mph - N/A   Overcast
2:35 PM 55.4 °F 48.2 °F 77% 30.12 in 10.0 mi ESE 13.8 mph - N/A   Overcast
2:55 PM 55.4 °F 50.0 °F 82% 30.12 in 10.0 mi ESE 16.1 mph 21.9 mph N/A   Overcast
3:15 PM 55.4 °F 48.2 °F 77% 30.12 in 10.0 mi ESE 15.0 mph 23.0 mph N/A   Overcast
3:35 PM 55.4 °F 48.2 °F 77% 30.11 in 10.0 mi SE 18.4 mph - N/A   Overcast
3:55 PM 55.4 °F 48.2 °F 77% 30.11 in 10.0 mi ESE 13.8 mph 23.0 mph N/A   Overcast
4:15 PM 55.4 °F 48.2 °F 77% 30.12 in 10.0 mi ESE 17.3 mph - N/A   Overcast
4:35 PM 55.4 °F 48.2 °F 77% 30.11 in 10.0 mi SE 17.3 mph - N/A   Overcast
4:55 PM 55.4 °F 50.0 °F 82% 30.11 in 10.0 mi ESE 13.8 mph 21.9 mph N/A   Overcast
5:15 PM 55.4 °F 48.2 °F 77% 30.11 in 10.0 mi ESE 20.7 mph 25.3 mph N/A   Overcast
5:35 PM 55.4 °F 48.2 °F 77% 30.11 in 10.0 mi ESE 18.4 mph 26.5 mph N/A   Overcast
5:55 PM 55.4 °F 48.2 °F 77% 30.11 in 10.0 mi ESE 15.0 mph 24.2 mph N/A   Overcast
6:15 PM 55.4 °F 48.2 °F 77% 30.11 in 10.0 mi ESE 19.6 mph 24.2 mph N/A   Overcast
6:35 PM 53.6 °F 48.2 °F 82% 30.11 in 10.0 mi ESE 19.6 mph 26.5 mph N/A   Overcast
6:55 PM 53.6 °F 48.2 °F 82% 30.12 in 10.0 mi SE 18.4 mph 24.2 mph N/A   Overcast
7:15 PM 53.6 °F 48.2 °F 82% 30.11 in 10.0 mi SE 18.4 mph - N/A   Overcast
7:35 PM 53.6 °F 48.2 °F 82% 30.12 in 10.0 mi SE 16.1 mph 23.0 mph N/A   Overcast
7:55 PM 53.6 °F 48.2 °F 82% 30.12 in 10.0 mi SE 18.4 mph 25.3 mph N/A   Overcast
8:15 PM 53.6 °F 48.2 °F 82% 30.12 in 4.0 mi SE 17.3 mph 26.5 mph N/A   Overcast
8:35 PM 51.8 °F 46.4 °F 82% 30.12 in 3.0 mi SE 19.6 mph 25.3 mph N/A   Overcast
8:55 PM 51.8 °F 46.4 °F 82% 30.12 in 5.0 mi SE 19.6 mph 27.6 mph N/A   Overcast
9:15 PM 51.8 °F 46.4 °F 82% 30.12 in 10.0 mi SE 13.8 mph 24.2 mph N/A   Overcast
9:35 PM 51.8 °F 46.4 °F 82% 30.13 in 8.0 mi SE 15.0 mph 23.0 mph N/A   Overcast
9:55 PM 51.8 °F 46.4 °F 82% 30.13 in 9.0 mi ESE 16.1 mph 20.7 mph N/A   Overcast
10:15 PM 51.8 °F 46.4 °F 82% 30.13 in 10.0 mi SE 17.3 mph 20.7 mph N/A   Overcast
10:35 PM 51.8 °F 46.4 °F 82% 30.13 in 10.0 mi SE 16.1 mph 24.2 mph N/A   Overcast
10:55 PM 51.8 °F 46.4 °F 82% 30.12 in 9.0 mi SE 16.1 mph - N/A   Overcast
11:15 PM 51.8 °F 46.4 °F 82% 30.11 in 7.0 mi SE 15.0 mph 25.3 mph N/A   Overcast
11:35 PM 51.8 °F 46.4 °F 82% 30.11 in 7.0 mi SE 18.4 mph 27.6 mph N/A   Overcast
11:55 PM 51.8 °F 46.4 °F 82% 30.10 in 7.0 mi ESE 17.3 mph - N/A   Overcast